| time (UTC) | temp C | wind direction | speed KPH | gust KPH | rain 1hr cm | rain 24hr cm | rain mn cm | humidity % | barometer mb |
| 20260506233328 | 15 | 360 | 3.2 | 9.7 | 0.00 | 2.31 | 0.00 | 81 | 1010.4 |
| 20260506232341 | 15 | 360 | 3.2 | 9.7 | 0.00 | 2.31 | 0.00 | 81 | 1010.4 |
| 20260506231322 | 15 | 360 | 4.8 | 8.0 | 0.00 | 2.31 | 0.00 | 80 | 1010.4 |
| 20260506230326 | 15 | 360 | 4.8 | 6.4 | 0.00 | 2.31 | 0.00 | 79 | 1010.3 |
| 20260506225350 | 15 | 360 | 4.8 | 9.7 | 0.00 | 2.31 | 0.00 | 80 | 1010.3 |
| 20260506224334 | 15 | 360 | 6.4 | 8.0 | 0.00 | 2.31 | 0.00 | 81 | 1010.2 |
| 20260506223346 | 15 | 360 | 6.4 | 8.0 | 0.00 | 2.31 | 0.00 | 82 | 1010.1 |
| 20260506222347 | 15 | 360 | 3.2 | 8.0 | 0.00 | 2.31 | 0.00 | 82 | 1010.1 |
| 20260506221331 | 15 | 360 | 6.4 | 9.7 | 0.00 | 2.31 | 0.00 | 82 | 1010.2 |
| 20260506220337 | 15 | 360 | 6.4 | 9.7 | 0.00 | 2.31 | 0.00 | 81 | 1010.2 |
| 20260506215335 | 15 | 360 | 0.0 | 4.8 | 0.00 | 2.31 | 0.58 | 80 | 1010.1 |
| 20260506214340 | 15 | 360 | 1.6 | 8.0 | 0.00 | 2.31 | 0.58 | 80 | 1010.1 |
| 20260506213340 | 16 | 360 | 3.2 | 6.4 | 0.00 | 2.31 | 0.58 | 79 | 1010.1 |
| 20260506212351 | 16 | 360 | 3.2 | 12.9 | 0.00 | 2.31 | 0.58 | 78 | 1009.9 |
| 20260506211336 | 16 | 360 | 3.2 | 6.4 | 0.00 | 2.31 | 0.58 | 78 | 1009.9 |
| 20260506210343 | 16 | 360 | 3.2 | 6.4 | 0.00 | 2.31 | 0.58 | 78 | 1009.9 |
| 20260506205332 | 16 | 360 | 6.4 | 9.7 | 0.00 | 2.31 | 0.58 | 77 | 1009.8 |
| 20260506204333 | 16 | 360 | 3.2 | 6.4 | 0.00 | 2.31 | 0.58 | 76 | 1009.7 |
| 20260506203331 | 17 | 360 | 4.8 | 8.0 | 0.00 | 2.31 | 0.58 | 75 | 1009.5 |
| 20260506202335 | 17 | 360 | 0.0 | 3.2 | 0.00 | 2.31 | 0.58 | 73 | 1009.3 |
| 20260506201333 | 17 | 360 | 0.0 | 6.4 | 0.00 | 2.31 | 0.58 | 73 | 1009.2 |
| 20260506200338 | 17 | 360 | 6.4 | 14.5 | 0.00 | 2.31 | 0.58 | 72 | 1009.1 |
| 20260506195336 | 17 | 360 | 17.7 | 27.4 | 0.00 | 2.31 | 0.58 | 73 | 1008.9 |
| 20260506194339 | 17 | 360 | 17.7 | 27.4 | 0.00 | 2.31 | 0.58 | 75 | 1008.7 |
| 20260506193324 | 17 | 360 | 14.5 | 33.8 | 0.00 | 2.31 | 0.58 | 80 | 1008.5 |
| 20260506192333 | 18 | 360 | 24.1 | 37.0 | 0.00 | 2.31 | 0.58 | 79 | 1008.2 |
| 20260506191327 | 18 | 360 | 24.1 | 33.8 | 0.00 | 2.31 | 0.58 | 78 | 1008.1 |
| 20260506190327 | 18 | 360 | 19.3 | 29.0 | 0.00 | 2.31 | 0.58 | 78 | 1008.1 |
| 20260506185340 | 18 | 360 | 12.9 | 25.7 | 0.00 | 2.31 | 0.58 | 77 | 1008.0 |
| 20260506184340 | 18 | 360 | 16.1 | 27.4 | 0.00 | 2.31 | 0.58 | 77 | 1007.9 |
| 20260506183335 | 18 | 360 | 20.9 | 33.8 | 0.00 | 2.31 | 0.58 | 79 | 1007.8 |
| 20260506182336 | 17 | 360 | 25.7 | 38.6 | 0.00 | 2.31 | 0.58 | 79 | 1007.7 |
| 20260506181346 | 17 | 360 | 27.4 | 40.2 | 0.00 | 2.31 | 0.58 | 79 | 1007.6 |
| 20260506180330 | 17 | 360 | 29.0 | 40.2 | 0.00 | 2.31 | 0.58 | 80 | 1007.5 |
| 20260506175339 | 18 | 360 | 29.0 | 46.7 | 0.00 | 2.31 | 0.58 | 80 | 1007.4 |
| 20260506174326 | 18 | 360 | 29.0 | 45.1 | 0.00 | 2.31 | 0.58 | 80 | 1007.2 |
| 20260506173325 | 18 | 360 | 29.0 | 40.2 | 0.00 | 2.31 | 0.58 | 77 | 1007.0 |
| 20260506172333 | 18 | 360 | 24.1 | 38.6 | 0.00 | 2.31 | 0.58 | 75 | 1007.1 |
| 20260506171341 | 18 | 360 | 22.5 | 43.5 | 0.00 | 2.31 | 0.58 | 71 | 1007.1 |
| 20260506170325 | 19 | 360 | 27.4 | 41.8 | 0.00 | 2.31 | 0.58 | 69 | 1007.0 |
| 20260506165332 | 19 | 360 | 27.4 | 49.9 | 0.00 | 2.39 | 0.58 | 68 | 1006.9 |
| 20260506164341 | 19 | 360 | 29.0 | 40.2 | 0.00 | 2.39 | 0.58 | 69 | 1006.8 |
| 20260506163331 | 18 | 360 | 30.6 | 46.7 | 0.00 | 2.39 | 0.58 | 69 | 1006.8 |
| 20260506162330 | 19 | 360 | 32.2 | 46.7 | 0.00 | 2.39 | 0.58 | 70 | 1006.8 |
| 20260506161332 | 19 | 360 | 29.0 | 45.1 | 0.00 | 2.39 | 0.58 | 69 | 1006.6 |
| 20260506160346 | 19 | 360 | 30.6 | 45.1 | 0.00 | 2.39 | 0.58 | 70 | 1006.6 |
| 20260506155323 | 19 | 360 | 35.4 | 53.1 | 0.00 | 2.39 | 0.58 | 71 | 1006.5 |
| 20260506154338 | 19 | 360 | 33.8 | 46.7 | 0.00 | 2.39 | 0.58 | 72 | 1006.6 |
| 20260506153340 | 18 | 360 | 32.2 | 51.5 | 0.00 | 2.39 | 0.58 | 75 | 1006.5 |
| 20260506152324 | 19 | 360 | 32.2 | 46.7 | 0.00 | 2.39 | 0.58 | 74 | 1006.6 |
| 20260506151332 | 19 | 360 | 30.6 | 49.9 | 0.00 | 2.39 | 0.58 | 73 | 1006.5 |
| 20260506150344 | 18 | 360 | 32.2 | 51.5 | 0.00 | 2.39 | 0.58 | 76 | 1006.5 |
| 20260506145342 | 18 | 360 | 30.6 | 51.5 | 0.00 | 2.39 | 0.58 | 75 | 1006.6 |
| 20260506144333 | 18 | 360 | 33.8 | 54.7 | 0.00 | 2.39 | 0.58 | 77 | 1006.7 |
| 20260506143328 | 18 | 360 | 37.0 | 61.2 | 0.00 | 2.39 | 0.58 | 78 | 1006.7 |
| 20260506142328 | 18 | 360 | 37.0 | 59.5 | 0.00 | 2.39 | 0.58 | 80 | 1006.6 |
| 20260506141336 | 18 | 360 | 43.5 | 61.2 | 0.00 | 2.39 | 0.58 | 79 | 1006.9 |
| 20260506140341 | 18 | 360 | 35.4 | 57.9 | 0.00 | 2.39 | 0.58 | 77 | 1006.8 |
| 20260506135325 | 18 | 360 | 33.8 | 61.2 | 0.00 | 2.39 | 0.58 | 77 | 1006.8 |
| 20260506134324 | 18 | 360 | 41.8 | 61.2 | 0.00 | 2.39 | 0.58 | 76 | 1006.8 |
| 20260506133338 | 18 | 360 | 32.2 | 49.9 | 0.00 | 2.39 | 0.58 | 75 | 1006.9 |
| 20260506132348 | 19 | 360 | 29.0 | 41.8 | 0.00 | 2.39 | 0.58 | 72 | 1006.9 |
| 20260506131336 | 19 | 360 | 35.4 | 51.5 | 0.00 | 2.39 | 0.58 | 72 | 1007.0 |
| 20260506130336 | 19 | 360 | 25.7 | 43.5 | 0.00 | 2.39 | 0.58 | 72 | 1007.1 |
| 20260506125328 | 19 | 360 | 27.4 | 53.1 | 0.00 | 2.39 | 0.58 | 74 | 1007.0 |
| 20260506124331 | 20 | 360 | 22.5 | 46.7 | 0.00 | 2.39 | 0.58 | 67 | 1007.0 |
| 20260506123339 | 20 | 360 | 27.4 | 40.2 | 0.00 | 2.39 | 0.58 | 66 | 1007.1 |
| 20260506122338 | 19 | 360 | 24.1 | 43.5 | 0.00 | 2.39 | 0.58 | 71 | 1007.1 |
| 20260506121339 | 18 | 360 | 30.6 | 48.3 | 0.00 | 2.39 | 0.58 | 72 | 1007.0 |
| 20260506120325 | 18 | 360 | 33.8 | 51.5 | 0.00 | 2.39 | 0.58 | 75 | 1007.1 |
| 20260506115335 | 18 | 360 | 35.4 | 64.4 | 0.00 | 2.39 | 0.58 | 78 | 1007.2 |
| 20260506114339 | 18 | 360 | 49.9 | 64.4 | 0.00 | 2.39 | 0.58 | 78 | 1007.3 |
| 20260506113330 | 18 | 360 | 35.4 | 59.5 | 0.00 | 2.39 | 0.58 | 77 | 1007.3 |
| 20260506112337 | 18 | 360 | 40.2 | 57.9 | 0.00 | 2.39 | 0.58 | 76 | 1007.2 |
| 20260506111347 | 18 | 360 | 33.8 | 51.5 | 0.00 | 2.39 | 0.58 | 73 | 1007.5 |
| 20260506110330 | 18 | 360 | 30.6 | 66.0 | 0.00 | 2.39 | 0.58 | 74 | 1007.5 |
| 20260506105342 | 18 | 360 | 38.6 | 49.9 | 0.00 | 2.39 | 0.58 | 78 | 1007.5 |
| 20260506104327 | 18 | 360 | 29.0 | 49.9 | 0.00 | 2.39 | 0.58 | 77 | 1007.6 |
| 20260506103328 | 18 | 360 | 30.6 | 46.7 | 0.00 | 2.39 | 0.58 | 77 | 1007.7 |
| 20260506102333 | 18 | 360 | 29.0 | 46.7 | 0.00 | 2.39 | 0.58 | 77 | 1007.8 |
| 20260506101341 | 18 | 360 | 25.7 | 43.5 | 0.00 | 2.39 | 0.58 | 78 | 1007.8 |
| 20260506100326 | 17 | 360 | 27.4 | 43.5 | 0.00 | 2.39 | 0.58 | 78 | 1007.9 |
| 20260506095324 | 17 | 360 | 29.0 | 43.5 | 0.00 | 2.39 | 0.58 | 78 | 1007.8 |
| 20260506094338 | 17 | 360 | 32.2 | 43.5 | 0.00 | 2.39 | 0.58 | 77 | 1007.8 |
| 20260506093340 | 17 | 360 | 30.6 | 43.5 | 0.00 | 2.39 | 0.58 | 79 | 1007.9 |
| 20260506092322 | 17 | 360 | 27.4 | 40.2 | 0.00 | 2.39 | 0.58 | 80 | 1007.9 |
| 20260506091333 | 17 | 360 | 30.6 | 43.5 | 0.00 | 2.39 | 0.58 | 78 | 1007.9 |
| 20260506090335 | 17 | 360 | 25.7 | 33.8 | 0.00 | 2.39 | 0.58 | 77 | 1007.8 |
| 20260506085331 | 17 | 360 | 22.5 | 29.0 | 0.00 | 2.59 | 0.58 | 75 | 1008.0 |
| 20260506084332 | 17 | 360 | 16.1 | 24.1 | 0.00 | 2.59 | 0.58 | 77 | 1008.0 |
| 20260506083345 | 17 | 360 | 14.5 | 25.7 | 0.00 | 2.59 | 0.58 | 77 | 1008.0 |
| 20260506082326 | 17 | 360 | 17.7 | 24.1 | 0.00 | 2.59 | 0.58 | 76 | 1008.0 |
| 20260506081340 | 17 | 360 | 16.1 | 24.1 | 0.00 | 2.59 | 0.58 | 76 | 1008.0 |
| 20260506080332 | 17 | 360 | 17.7 | 25.7 | 0.00 | 2.59 | 0.58 | 77 | 1008.0 |
| 20260506073344 | 17 | 360 | 12.9 | 24.1 | 0.00 | 2.59 | 0.58 | 77 | 1007.9 |
| 20260506072327 | 16 | 360 | 14.5 | 22.5 | 0.00 | 2.59 | 0.58 | 80 | 1007.9 |
| 20260506071336 | 16 | 360 | 8.0 | 16.1 | 0.00 | 2.59 | 0.58 | 82 | 1007.8 |
| 20260506070327 | 16 | 360 | 6.4 | 17.7 | 0.00 | 2.59 | 0.58 | 82 | 1007.6 |
| 20260506062351 | 15 | 360 | 6.4 | 8.0 | 0.00 | 2.59 | 0.58 | 87 | 1007.2 |
| 20260506061337 | 15 | 360 | 1.6 | 8.0 | 0.10 | 2.59 | 0.58 | 88 | 1007.1 |
| 20260506060322 | 14 | 360 | 8.0 | 14.5 | 0.10 | 2.59 | 0.58 | 88 | 1007.1 |
| 20260506051340 | 14 | 360 | 3.2 | 12.9 | 1.09 | 2.49 | 0.56 | 89 | 1007.6 |
| 20260506050331 | 14 | 360 | 6.4 | 8.0 | 1.09 | 2.49 | 0.56 | 88 | 1007.9 |
| 20260506044332 | 14 | 360 | 12.9 | 17.7 | 0.61 | 2.11 | 0.43 | 88 | 1008.2 |
| 20260506043344 | 14 | 360 | 12.9 | 22.5 | 0.10 | 1.60 | 0.30 | 87 | 1008.3 |
| 20260506042327 | 14 | 360 | 11.3 | 17.7 | 0.10 | 1.60 | 0.30 | 87 | 1008.1 |
| 20260506041329 | 14 | 360 | 3.2 | 6.4 | 0.00 | 1.50 | 0.28 | 88 | 1007.9 |
| 20260506040335 | 14 | 360 | 1.6 | 6.4 | 0.00 | 1.50 | 0.28 | 88 | 1008.0 |
| 20260506035329 | 14 | 360 | 3.2 | 6.4 | 0.00 | 5.00 | 0.28 | 88 | 1008.1 |
| 20260506034334 | 14 | 360 | 4.8 | 6.4 | 0.00 | 5.00 | 0.28 | 88 | 1008.2 |
| 20260506033339 | 14 | 360 | 3.2 | 8.0 | 0.00 | 5.00 | 0.28 | 87 | 1008.3 |
| 20260506032329 | 14 | 360 | 4.8 | 6.4 | 0.00 | 5.00 | 0.28 | 86 | 1008.3 |
| 20260506031325 | 14 | 360 | 3.2 | 9.7 | 0.00 | 5.00 | 0.28 | 85 | 1008.5 |
| 20260506030335 | 14 | 360 | 3.2 | 9.7 | 0.00 | 5.00 | 0.28 | 85 | 1008.5 |
| 20260506025349 | 14 | 360 | 1.6 | 6.4 | 0.00 | 8.61 | 0.28 | 84 | 1008.5 |
| 20260506024337 | 15 | 360 | 1.6 | 4.8 | 0.00 | 8.61 | 0.28 | 84 | 1008.2 |
| 20260506023345 | 15 | 360 | 6.4 | 9.7 | 0.00 | 8.61 | 0.28 | 84 | 1008.3 |
| 20260506022335 | 15 | 360 | 6.4 | 14.5 | 0.00 | 8.61 | 0.28 | 84 | 1008.5 |
| 20260506021335 | 15 | 360 | 4.8 | 14.5 | 0.00 | 8.61 | 0.28 | 83 | 1008.6 |
| 20260506020333 | 15 | 360 | 8.0 | 14.5 | 0.00 | 8.61 | 0.28 | 84 | 1008.7 |
| 20260506015338 | 15 | 360 | 4.8 | 8.0 | 0.00 | 14.10 | 0.28 | 84 | 1008.9 |
| 20260506014327 | 15 | 360 | 3.2 | 6.4 | 0.00 | 14.10 | 0.28 | 85 | 1009.2 |
| 20260506013343 | 15 | 360 | 4.8 | 8.0 | 0.00 | 14.10 | 0.28 | 85 | 1009.2 |
| 20260506012325 | 15 | 360 | 6.4 | 9.7 | 0.00 | 14.10 | 0.28 | 85 | 1009.2 |
| 20260506011332 | 15 | 360 | 4.8 | 8.0 | 0.10 | 14.10 | 0.28 | 86 | 1009.2 |
| 20260506010344 | 15 | 360 | 6.4 | 8.0 | 0.30 | 14.10 | 0.28 | 87 | 1009.3 |
| 20260506005330 | 15 | 360 | 6.4 | 16.1 | 0.51 | 18.69 | 0.28 | 87 | 1009.5 |
| 20260506004341 | 15 | 360 | 12.9 | 17.7 | 0.89 | 18.69 | 0.28 | 88 | 1009.6 |
| 20260506003326 | 15 | 360 | 4.8 | 14.5 | 1.09 | 18.69 | 0.28 | 88 | 1009.5 |
| 20260506002328 | 15 | 360 | 9.7 | 16.1 | 1.09 | 18.69 | 0.28 | 87 | 1009.9 |
| 20260506001325 | 15 | 360 | 8.0 | 12.9 | 0.99 | 18.59 | 0.25 | 86 | 1010.0 |
| 20260506000331 | 15 | 360 | 4.8 | 8.0 | 0.79 | 18.39 | 0.20 | 86 | 1010.6 |
| 20260505235344 | 15 | 360 | 4.8 | 17.7 | 0.61 | 22.20 | 0.15 | 84 | 1010.7 |
| 20260505234330 | 15 | 360 | 9.7 | 14.5 | 0.20 | 21.79 | 0.05 | 82 | 1010.6 |